This demonstration page uses our WeatherBlox Daily Observations layout. Learn more.

Left ArrowRight Arrow

39.08367, -84.50855

Hourly Observations for March 19, 2015

Temp ( °F °C ) Dew Point ( °F °C ) Humidity (%) Winds ( mph kmh ) Pressure ( in mb ) Visibility ( mi km ) Precip ( " mm )
12:53 am 00:53 Clear 41 5 25 -3.9 53 53 NE 7 11 30.25 1024 10 16.0934 N/A
1:53 am 01:53 Mostly Cloudy 41 5 25 -3.9 53 53 ENE 5 7 30.26 1025 10 16.0934 N/A
2:53 am 02:53 Partly Cloudy 41 5 24 -4.4 51 51 ENE 3 6 30.25 1024 10 16.0934 N/A
3:53 am 03:53 Mostly Cloudy 41 5 24 -4.4 51 51 ENE 5 7 30.24 1024 10 16.0934 N/A
4:53 am 04:53 Cloudy 41 5 24 -4.4 51 51 NE 5 7 30.23 1024 10 16.0934 N/A
5:53 am 05:53 Mostly Clear 40 4.4 23 -5 51 51 NE 5 7 30.23 1024 10 16.0934 N/A
6:53 am 06:53 Cloudy 41 5 24 -4.4 51 51 NE 6 9 30.23 1024 10 16.0934 N/A
7:53 am 07:53 Cloudy 41 5 24 -4.4 51 51 ENE 6 9 30.24 1024 10 16.0934 N/A
8:53 am 08:53 Cloudy 41 5 25 -3.9 53 53 NE 8 13 30.27 1025 10 16.0934 N/A
9:53 am 09:53 Cloudy 43 6.1 24 -4.4 47 47 ENE 7 11 30.26 1025 10 16.0934 N/A
10:53 am 10:53 Mostly Sunny 45 7.2 23 -5 42 42 ENE 8 13 30.26 1025 10 16.0934 N/A
11:53 am 11:53 Partly Cloudy 47 8.3 23 -5 39 39 E 8 13 30.25 1024 10 16.0934 N/A
12:53 pm 12:53 Sunny 49 9.4 22 -5.6 35 35 E 10 17 30.21 1023 10 16.0934 N/A
1:53 pm 13:53 Sunny 51 10.6 22 -5.6 32 32 ESE 9 15 30.19 1022 10 16.0934 N/A
2:53 pm 14:53 Mostly Cloudy 53 11.7 23 -5 31 31 NE 13 20 30.15 1021 10 16.0934 N/A
3:53 pm 15:53 Cloudy 53 11.7 23 -5 31 31 VRB 5 7 30.12 1020 10 16.0934 N/A
4:53 pm 16:53 Cloudy 52 11.1 24 -4.4 34 34 NNE 10 17 30.12 1020 10 16.0934 N/A
5:53 pm 17:53 Cloudy 51 10.6 26 -3.3 38 38 NE 7 11 30.11 1020 10 16.0934 N/A
6:53 pm 18:53 Cloudy with Light Rain 49 9.4 30 -1.1 48 48 ESE 7 11 30.12 1020 10 16.0934 N/A
7:53 pm 19:53 Cloudy with Light Rain 47 8.3 33 0.6 59 59 E 6 9 30.11 1020 10 16.0934 N/A
8:53 pm 20:53 Cloudy with Light Rain 43 6.1 39 3.9 86 86 ENE 3 6 30.11 1020 10 16.0934 0.03 0.762
9:53 pm 21:53 Cloudy with Light Rain 43 6.1 39 3.9 86 86 NE 3 6 30.12 1020 10 16.0934 0.02 0.508
10:53 pm 22:53 Cloudy with Light Rain 42 5.6 40 4.4 92 92 ENE 5 7 30.12 1020 8 12.87472 0.04 1.016
11:53 pm 23:53 Cloudy 42 5.6 40 4.4 92 92 NE 3 6 30.09 1019 10 16.0934 N/A

Powered by AerisWeather